| time (UTC) | temp F | wind direction | speed MPH | gust MPH | rain 1hr in | rain 24hr in | rain mn in | humidity % | barometer mb |
| 20260505195616 | 54 | 353 | 4.0 | 9.0 | 0.00 | 0.00 | 0.00 | 79 | 1009.6 |
| 20260505194503 | 54 | 355 | 5.0 | 10.0 | 0.00 | 0.00 | 0.00 | 78 | 1009.6 |
| 20260505193817 | 54 | 350 | 4.0 | 12.0 | 0.00 | 0.00 | 0.00 | 77 | 1009.5 |
| 20260505192703 | 54 | 350 | 4.0 | 10.0 | 0.00 | 0.00 | 0.00 | 77 | 1009.5 |
| 20260505191803 | 55 | 352 | 4.0 | 9.0 | 0.00 | 0.00 | 0.00 | 76 | 1009.4 |
| 20260505190903 | 55 | 357 | 3.0 | 7.0 | 0.00 | 0.00 | 0.00 | 73 | 1009.4 |
| 20260505190004 | 55 | 1 | 4.0 | 8.0 | 0.00 | 0.00 | 0.00 | 75 | 1009.4 |
| 20260505185403 | 56 | 2 | 4.0 | 8.0 | 0.00 | 0.00 | 0.00 | 74 | 1009.4 |
| 20260505184503 | 56 | 11 | 5.0 | 13.0 | 0.00 | 0.00 | 0.00 | 70 | 1009.3 |
| 20260505183603 | 56 | 10 | 5.0 | 13.0 | 0.00 | 0.00 | 0.00 | 64 | 1009.2 |
| 20260505182703 | 56 | 357 | 5.0 | 11.0 | 0.00 | 0.00 | 0.00 | 68 | 1009.2 |
| 20260505181803 | 56 | 357 | 5.0 | 12.0 | 0.00 | 0.00 | 0.00 | 71 | 1009.2 |
| 20260505180903 | 56 | 356 | 5.0 | 12.0 | 0.00 | 0.00 | 0.00 | 70 | 1009.1 |
| 20260505180003 | 57 | 1 | 5.0 | 11.0 | 0.00 | 0.00 | 0.00 | 72 | 1009.1 |
| 20260505175403 | 57 | 1 | 5.0 | 10.0 | 0.00 | 0.00 | 0.00 | 71 | 1009.0 |
| 20260505174503 | 58 | 359 | 4.0 | 9.0 | 0.00 | 0.00 | 0.00 | 72 | 1009.0 |
| 20260505173818 | 58 | 351 | 4.0 | 9.0 | 0.00 | 0.00 | 0.00 | 72 | 1008.9 |
| 20260505172703 | 58 | 359 | 6.0 | 12.0 | 0.00 | 0.00 | 0.00 | 71 | 1008.8 |
| 20260505171803 | 58 | 1 | 6.0 | 13.0 | 0.00 | 0.00 | 0.00 | 68 | 1008.9 |
| 20260505170903 | 59 | 359 | 7.0 | 15.0 | 0.00 | 0.00 | 0.00 | 68 | 1008.9 |
| 20260505170003 | 59 | 8 | 7.0 | 13.0 | 0.00 | 0.00 | 0.00 | 62 | 1008.8 |
| 20260505165403 | 59 | 12 | 7.0 | 13.0 | 0.00 | 0.00 | 0.00 | 63 | 1008.9 |
| 20260505164503 | 59 | 20 | 6.0 | 10.0 | 0.00 | 0.00 | 0.00 | 63 | 1009.0 |
| 20260505163603 | 59 | 19 | 6.0 | 11.0 | 0.00 | 0.00 | 0.00 | 63 | 1009.1 |
| 20260505162703 | 59 | 22 | 6.0 | 11.0 | 0.00 | 0.00 | 0.00 | 63 | 1009.1 |
| 20260505161803 | 59 | 19 | 6.0 | 11.0 | 0.00 | 0.00 | 0.00 | 64 | 1009.0 |
| 20260505160903 | 59 | 12 | 7.0 | 13.0 | 0.00 | 0.00 | 0.00 | 61 | 1009.1 |
| 20260505152703 | 59 | 10 | 5.0 | 11.0 | 0.00 | 0.00 | 0.00 | 68 | 1009.3 |
| 20260505151803 | 59 | 17 | 5.0 | 11.0 | 0.00 | 0.00 | 0.00 | 69 | 1009.3 |
| 20260505150903 | 59 | 27 | 5.0 | 12.0 | 0.00 | 0.00 | 0.00 | 70 | 1009.4 |
| 20260505124503 | 57 | 40 | 2.0 | 7.0 | 0.00 | 0.00 | 0.00 | 79 | 1010.3 |
| 20260505123603 | 56 | 58 | 3.0 | 11.0 | 0.00 | 0.00 | 0.00 | 79 | 1010.3 |
| 20260505122918 | 56 | 74 | 3.0 | 9.0 | 0.00 | 0.00 | 0.00 | 80 | 1010.4 |
| 20260505122017 | 56 | 63 | 4.0 | 9.0 | 0.00 | 0.00 | 0.00 | 80 | 1010.4 |
| 20260505120903 | 56 | 52 | 3.0 | 8.0 | 0.00 | 0.00 | 0.00 | 80 | 1010.4 |
| 20260505120218 | 55 | 48 | 4.0 | 11.0 | 0.00 | 0.00 | 0.00 | 81 | 1010.4 |
| 20260505115403 | 55 | 33 | 4.0 | 10.0 | 0.00 | 0.00 | 0.00 | 80 | 1010.5 |
| 20260505114717 | 55 | 35 | 5.0 | 10.0 | 0.00 | 0.00 | 0.00 | 81 | 1010.5 |
| 20260505113603 | 55 | 26 | 6.0 | 10.0 | 0.00 | 0.00 | 0.00 | 80 | 1010.6 |
| 20260505112703 | 55 | 30 | 5.0 | 10.0 | 0.00 | 0.00 | 0.00 | 82 | 1010.7 |
| 20260505111803 | 55 | 28 | 6.0 | 11.0 | 0.00 | 0.00 | 0.00 | 82 | 1010.7 |
| 20260505111118 | 55 | 22 | 7.0 | 12.0 | 0.00 | 0.00 | 0.00 | 82 | 1010.6 |
| 20260505101803 | 54 | 12 | 7.0 | 13.0 | 0.00 | 0.00 | 0.00 | 84 | 1011.0 |
| 20260505100903 | 53 | 9 | 6.0 | 11.0 | 0.00 | 0.00 | 0.00 | 86 | 1011.0 |
| 20260505100003 | 53 | 14 | 7.0 | 11.0 | 0.00 | 0.00 | 0.00 | 86 | 1011.0 |
| 20260505095403 | 53 | 18 | 6.0 | 11.0 | 0.00 | 0.00 | 0.00 | 86 | 1011.0 |
| 20260505094718 | 53 | 15 | 5.0 | 11.0 | 0.00 | 0.00 | 0.00 | 86 | 1011.0 |
| 20260505093603 | 53 | 16 | 7.0 | 11.0 | 0.00 | 0.00 | 0.00 | 86 | 1011.1 |
| 20260505092703 | 53 | 11 | 5.0 | 11.0 | 0.00 | 0.00 | 0.00 | 86 | 1011.1 |
| 20260505091803 | 53 | 13 | 6.0 | 12.0 | 0.00 | 0.00 | 0.00 | 87 | 1011.1 |
| 20260505091117 | 52 | 9 | 6.0 | 12.0 | 0.00 | 0.00 | 0.00 | 86 | 1011.1 |
| 20260505090003 | 52 | 11 | 5.0 | 10.0 | 0.00 | 0.00 | 0.00 | 86 | 1011.1 |
| 20260505085619 | 52 | 16 | 6.0 | 12.0 | 0.00 | 0.00 | 0.00 | 86 | 1011.2 |
| 20260505084503 | 52 | 3 | 6.0 | 11.0 | 0.00 | 0.00 | 0.00 | 86 | 1011.2 |
| 20260505083603 | 52 | 16 | 6.0 | 10.0 | 0.00 | 0.00 | 0.00 | 87 | 1011.3 |
| 20260505082703 | 52 | 360 | 5.0 | 11.0 | 0.00 | 0.00 | 0.00 | 87 | 1011.3 |
| 20260505081803 | 52 | 355 | 5.0 | 10.0 | 0.00 | 0.00 | 0.00 | 87 | 1011.4 |
| 20260505081117 | 52 | 3 | 5.0 | 10.0 | 0.00 | 0.00 | 0.00 | 87 | 1011.4 |
| 20260505080003 | 52 | 6 | 6.0 | 12.0 | 0.00 | 0.00 | 0.00 | 87 | 1011.3 |
| 20260505075403 | 52 | 13 | 5.0 | 12.0 | 0.00 | 0.00 | 0.00 | 87 | 1011.3 |
| 20260505074503 | 52 | 6 | 6.0 | 14.0 | 0.00 | 0.00 | 0.00 | 87 | 1011.3 |
| 20260505073603 | 52 | 13 | 6.0 | 12.0 | 0.00 | 0.00 | 0.00 | 87 | 1011.1 |
| 20260505072703 | 52 | 12 | 6.0 | 13.0 | 0.00 | 0.00 | 0.00 | 87 | 1011.1 |
| 20260505071803 | 51 | 9 | 6.0 | 12.0 | 0.00 | 0.00 | 0.00 | 87 | 1011.1 |
| 20260505070903 | 51 | 4 | 5.0 | 11.0 | 0.00 | 0.00 | 0.00 | 88 | 1011.1 |
| 20260505070218 | 51 | 358 | 5.0 | 11.0 | 0.00 | 0.00 | 0.00 | 88 | 1011.2 |
| 20260505065403 | 51 | 2 | 6.0 | 12.0 | 0.00 | 0.00 | 0.00 | 87 | 1011.2 |
| 20260505064503 | 51 | 4 | 5.0 | 9.0 | 0.00 | 0.00 | 0.00 | 87 | 1011.3 |
| 20260505063818 | 51 | 7 | 6.0 | 13.0 | 0.00 | 0.00 | 0.00 | 88 | 1011.4 |
| 20260505062703 | 51 | 360 | 4.0 | 10.0 | 0.00 | 0.00 | 0.00 | 88 | 1011.6 |
| 20260505061803 | 51 | 357 | 5.0 | 9.0 | 0.00 | 0.00 | 0.00 | 87 | 1011.5 |
| 20260505061116 | 51 | 359 | 5.0 | 11.0 | 0.00 | 0.00 | 0.00 | 87 | 1011.5 |
| 20260505060003 | 51 | 356 | 5.0 | 11.0 | 0.00 | 0.00 | 0.00 | 88 | 1011.4 |
| 20260505055403 | 51 | 348 | 5.0 | 10.0 | 0.00 | 0.00 | 0.00 | 88 | 1011.4 |
| 20260505054503 | 51 | 359 | 4.0 | 9.0 | 0.00 | 0.00 | 0.00 | 88 | 1011.4 |
| 20260505053818 | 51 | 356 | 5.0 | 9.0 | 0.00 | 0.00 | 0.00 | 88 | 1011.5 |
| 20260505052917 | 51 | 357 | 4.0 | 10.0 | 0.00 | 0.00 | 0.00 | 88 | 1011.5 |
| 20260505051803 | 51 | 348 | 4.0 | 8.0 | 0.00 | 0.00 | 0.00 | 89 | 1011.6 |
| 20260505050903 | 51 | 350 | 4.0 | 9.0 | 0.00 | 0.00 | 0.00 | 89 | 1011.6 |
| 20260505040903 | 52 | 352 | 4.0 | 9.0 | 0.00 | 0.00 | 0.00 | 87 | 1011.4 |
| 20260505040003 | 52 | 359 | 4.0 | 9.0 | 0.00 | 0.00 | 0.00 | 87 | 1011.4 |
| 20260505035403 | 52 | 360 | 4.0 | 9.0 | 0.00 | 0.00 | 0.00 | 87 | 1011.4 |
| 20260505034503 | 52 | 9 | 5.0 | 10.0 | 0.00 | 0.00 | 0.00 | 87 | 1011.4 |
| 20260505033603 | 52 | 9 | 4.0 | 8.0 | 0.00 | 0.00 | 0.00 | 87 | 1011.5 |
| 20260505032918 | 53 | 10 | 4.0 | 8.0 | 0.00 | 0.00 | 0.00 | 87 | 1011.5 |
| 20260505031803 | 53 | 13 | 4.0 | 9.0 | 0.00 | 0.00 | 0.00 | 86 | 1011.5 |
| 20260505030903 | 53 | 2 | 5.0 | 11.0 | 0.00 | 0.00 | 0.00 | 86 | 1011.5 |
| 20260505030003 | 53 | 4 | 5.0 | 9.0 | 0.00 | 0.00 | 0.00 | 86 | 1011.6 |
| 20260505025403 | 53 | 360 | 4.0 | 9.0 | 0.00 | 0.00 | 0.00 | 86 | 1011.6 |
| 20260505024503 | 53 | 6 | 5.0 | 12.0 | 0.00 | 0.00 | 0.00 | 85 | 1011.5 |
| 20260505023603 | 53 | 6 | 5.0 | 10.0 | 0.00 | 0.00 | 0.00 | 85 | 1011.5 |
| 20260505022918 | 54 | 7 | 5.0 | 10.0 | 0.00 | 0.00 | 0.00 | 85 | 1011.5 |
| 20260505021803 | 54 | 355 | 5.0 | 12.0 | 0.00 | 0.00 | 0.00 | 85 | 1011.5 |
| 20260505020903 | 54 | 3 | 5.0 | 10.0 | 0.00 | 0.00 | 0.00 | 85 | 1011.5 |
| 20260505020004 | 54 | 358 | 5.0 | 11.0 | 0.00 | 0.00 | 0.00 | 85 | 1011.6 |
| 20260505015403 | 54 | 358 | 4.0 | 11.0 | 0.00 | 0.00 | 0.00 | 85 | 1011.6 |
| 20260505014503 | 54 | 353 | 5.0 | 9.0 | 0.00 | 0.00 | 0.00 | 85 | 1011.6 |
| 20260505013603 | 54 | 359 | 6.0 | 12.0 | 0.00 | 0.00 | 0.00 | 85 | 1011.6 |
| 20260505012918 | 54 | 356 | 5.0 | 12.0 | 0.00 | 0.00 | 0.00 | 86 | 1011.7 |
| 20260505011803 | 54 | 353 | 4.0 | 9.0 | 0.00 | 0.00 | 0.00 | 87 | 1011.7 |
| 20260505010903 | 54 | 353 | 4.0 | 9.0 | 0.00 | 0.00 | 0.00 | 87 | 1011.7 |
| 20260505010003 | 54 | 350 | 3.0 | 8.0 | 0.00 | 0.00 | 0.00 | 87 | 1011.7 |
| 20260505005403 | 54 | 356 | 4.0 | 7.0 | 0.00 | 0.00 | 0.00 | 87 | 1011.8 |
| 20260505004503 | 54 | 351 | 3.0 | 9.0 | 0.00 | 0.00 | 0.00 | 87 | 1011.9 |
| 20260505003603 | 54 | 354 | 4.0 | 10.0 | 0.00 | 0.00 | 0.00 | 87 | 1012.0 |
| 20260505002703 | 54 | 351 | 5.0 | 9.0 | 0.00 | 0.00 | 0.00 | 87 | 1012.0 |
| 20260505002017 | 54 | 356 | 6.0 | 12.0 | 0.00 | 0.00 | 0.00 | 87 | 1011.9 |
| 20260505001118 | 54 | 352 | 5.0 | 11.0 | 0.00 | 0.00 | 0.00 | 88 | 1011.9 |
| 20260505000003 | 54 | 350 | 4.0 | 10.0 | 0.00 | 0.00 | 0.00 | 88 | 1012.1 |
| 20260504235403 | 54 | 351 | 5.0 | 10.0 | 0.00 | 0.00 | 0.00 | 88 | 1012.1 |
| 20260504234503 | 54 | 350 | 4.0 | 10.0 | 0.00 | 0.00 | 0.00 | 88 | 1012.2 |
| 20260504233603 | 54 | 340 | 4.0 | 9.0 | 0.00 | 0.00 | 0.00 | 88 | 1012.3 |
| 20260504232703 | 54 | 340 | 4.0 | 10.0 | 0.00 | 0.00 | 0.00 | 88 | 1012.4 |
| 20260504231803 | 54 | 339 | 4.0 | 12.0 | 0.00 | 0.00 | 0.00 | 88 | 1012.4 |
| 20260504230903 | 54 | 341 | 4.0 | 10.0 | 0.00 | 0.00 | 0.00 | 88 | 1012.4 |
| 20260504230217 | 54 | 339 | 4.0 | 10.0 | 0.00 | 0.00 | 0.00 | 88 | 1012.4 |
| 20260504225403 | 54 | 341 | 5.0 | 13.0 | 0.00 | 0.00 | 0.00 | 88 | 1012.3 |
| 20260504224503 | 54 | 341 | 4.0 | 9.0 | 0.00 | 0.00 | 0.00 | 88 | 1012.5 |
| 20260504223603 | 54 | 338 | 4.0 | 8.0 | 0.00 | 0.00 | 0.00 | 89 | 1012.6 |
| 20260504222703 | 54 | 337 | 4.0 | 9.0 | 0.00 | 0.00 | 0.00 | 88 | 1012.6 |
| 20260504221803 | 54 | 338 | 4.0 | 8.0 | 0.00 | 0.00 | 0.00 | 89 | 1012.7 |
| 20260504220903 | 54 | 330 | 4.0 | 8.0 | 0.00 | 0.00 | 0.00 | 88 | 1012.7 |
| 20260504220219 | 54 | 328 | 4.0 | 9.0 | 0.00 | 0.00 | 0.00 | 88 | 1012.7 |
| 20260504215403 | 54 | 332 | 4.0 | 10.0 | 0.00 | 0.00 | 0.00 | 88 | 1012.8 |
| 20260504214503 | 54 | 331 | 4.0 | 9.0 | 0.00 | 0.00 | 0.00 | 88 | 1012.8 |
| 20260504213817 | 54 | 334 | 4.0 | 8.0 | 0.00 | 0.00 | 0.00 | 88 | 1012.8 |
| 20260504212918 | 55 | 328 | 4.0 | 9.0 | 0.00 | 0.00 | 0.00 | 88 | 1012.9 |
| 20260504211803 | 55 | 338 | 4.0 | 8.0 | 0.00 | 0.00 | 0.00 | 89 | 1013.0 |
| 20260504210903 | 54 | 332 | 4.0 | 9.0 | 0.00 | 0.00 | 0.00 | 89 | 1013.0 |
| 20260504210003 | 55 | 339 | 4.0 | 8.0 | 0.00 | 0.00 | 0.00 | 88 | 1012.9 |
| 20260504205618 | 55 | 336 | 4.0 | 10.0 | 0.00 | 0.00 | 0.00 | 88 | 1012.9 |
| 20260504204503 | 55 | 334 | 5.0 | 11.0 | 0.00 | 0.00 | 0.00 | 88 | 1012.9 |
| 20260504203603 | 55 | 331 | 5.0 | 11.0 | 0.00 | 0.00 | 0.00 | 87 | 1012.8 |
| 20260504202703 | 55 | 332 | 5.0 | 10.0 | 0.00 | 0.00 | 0.00 | 87 | 1012.8 |
| 20260504201803 | 56 | 333 | 5.0 | 10.0 | 0.00 | 0.00 | 0.00 | 87 | 1012.8 |
| 20260504201116 | 56 | 332 | 5.0 | 10.0 | 0.00 | 0.00 | 0.00 | 87 | 1012.8 |
| 20260504200004 | 56 | 327 | 5.0 | 10.0 | 0.00 | 0.00 | 0.00 | 87 | 1012.8 |